Flag for U.S.A. Weather past 2 weeks in Lewiston, Idaho, U.S.A.

Now
64 °F

Light rain. Overcast.


Feels Like: 64 °F
Forecast: 56 / 75 °F
Wind: 8 mph from Southwest

Location: Lewiston-Nez Perce County Airport

Current Time: Aug 31, 2014 at 3:51:06 AM

Latest Report: Aug 31, 2014 at 2:56 AM


Visibility: 10 mi

Pressure: 29.89 "Hg

Humidity: 56%

Dew point: 48 °F

Location of LewistonLocation

Historic Weather in Lewiston — Graph

°F

Lewiston temperature yesterday

Maximum temperature yesterday: 81 °F (at 3:56 PM)
Minimum temperature yesterday: 64 °F (at 6:56 AM)
Average temperature yesterday: 71 °F

Past Weeks' High & Low Weather Summary

 TemperatureHumidityPressure
High95 °F (Aug 18, 3:56 PM)93% (Aug 23, 6:56 AM)30.11 "Hg (Aug 23, 6:56 AM)
Low55 °F (Aug 25, 5:56 AM)15% (Aug 18, 3:56 PM)29.59 "Hg (Aug 19, 4:56 PM)
Average73 °F45%29.90 "Hg
* Reported Aug 16 1:56 AM — Aug 31 1:56 AM, Lewiston, Weather by CustomWeather, © 2014

Note: Actual official high and low records may vary slightly from our data, if they occured in-between our weather recording intervals... More about our weather records

Advertising

Lewiston weather history for previous 24 hours

 ConditionsComfort  
Time TempWeatherWind HumidityBarometerVisibility
1:56 AM
Aug 31
64 °FPassing clouds.7 mph56%29.88 "Hg10 mi
12:56 AM64 °FPassing clouds.10 mph56%29.85 "Hg10 mi
11:56 PM
Aug 30
64 °FClear.10 mph56%29.85 "Hg10 mi
10:56 PM65 °FClear.8 mph54%29.85 "Hg10 mi
9:56 PM68 °FMostly cloudy.13 mph49%29.84 "Hg10 mi
8:56 PM69 °FPassing clouds.9 mph47%29.83 "Hg10 mi
7:56 PM71 °FOvercast.6 mph44%29.82 "Hg10 mi
6:56 PM72 °FScattered clouds.9 mph44%29.79 "Hg10 mi
5:56 PM75 °FSunny.21 mph37%29.77 "Hg10 mi
4:56 PM78 °FBroken clouds.15 mph32%29.77 "Hg10 mi
3:56 PM81 °FScattered clouds.16 mph30%29.77 "Hg10 mi
2:56 PM78 °FPassing clouds.5 mph31%29.79 "Hg10 mi
1:56 PM78 °FSunny.3 mph31%29.81 "Hg10 mi
12:56 PM77 °FSunny.9 mph33%29.82 "Hg10 mi
11:56 AM76 °FOvercast.3 mph35%29.84 "Hg10 mi
10:56 AM74 °FPartly sunny.No wind37%29.86 "Hg10 mi
9:56 AM72 °FSunny.5 mph40%29.87 "Hg10 mi
8:56 AM70 °FSunny.No wind42%29.87 "Hg10 mi
7:56 AM65 °FPassing clouds.No wind52%29.87 "Hg10 mi
6:56 AM64 °FPassing clouds.No wind56%29.86 "Hg10 mi
5:56 AM66 °FPassing clouds.3 mph47%29.85 "Hg10 mi
4:56 AM66 °FClear.5 mph49%29.85 "Hg10 mi
3:56 AM68 °FPassing clouds.No wind42%29.84 "Hg10 mi
Weather by CustomWeather, © 2014

See weather overviewHow to use our weather pages